QPF
0.00 0.00 0.00 0.00 0.00 0.00 0.00 0.00 0.00 0.00 0.00 0.00 0.00 0.00 0.00 0.00 0.00 0.00 0.00 0.00 0.00 0.00 0.00 0.00 0.00 0.00 0.00 0.00 0.00 0.00 -0.00 0.00 0.00 0.00 0.00 0.00 0.00 -0.00 0.00 0.00 0.00 0.00 0.00 0.00 0.00 0.00 0.00 0.00 0.00 0.00 0.00 0.00
0.00 0.00 0.00 0.00 0.00 0.00 0.00 0.00 0.00 0.00 0.00 0.00 0.00 0.00 0.00 0.00 0.00 0.00 0.00 0.00 0.01 0.00 0.00 0.00 0.00 0.00 0.00 0.00 0.00 0.00 0.00 0.00 0.00 0.00 0.00 0.00 0.00 0.00 0.00 0.00 0.00 0.00 0.00 0.00 0.00 0.00 0.00 0.00 0.00 0.00 0.00 0.00
0.02 0.00 0.00 0.00 0.00 0.00 0.00 0.00 0.00 0.00 0.00 0.00 0.00 0.00 0.00 0.00 0.00 0.00 0.00 0.00 0.00 0.00 0.00 0.00 0.00 0.00 0.00 0.00 0.00 0.00 0.00 0.00 0.00 0.00 0.00 0.00 0.00 0.00 0.00 0.00 0.00 0.00 0.00 0.00 0.00 0.00 0.00 0.00 0.00 0.00 0.00 0.00
0.00 0.00 0.00 0.00 0.00 0.00 0.00 0.00 0.00 0.00 0.00 0.00 0.00 0.00 0.00 0.00 0.00 0.00 0.00 0.00 0.00 0.00 0.00 0.00 0.00 0.00 0.00 0.00 0.00 0.00 0.00 0.00 0.00 0.00 0.00 0.00 0.00 0.00 0.00 0.00 0.00 0.00 0.00 0.00 0.00 0.00 0.00 0.00 0.00 0.00 0.00 0.00
0.02 0.01 0.01 0.00 0.00 0.00 0.00 0.00 0.00 0.00 0.00 0.00 0.00 0.00 0.00 0.00 0.00 0.00 0.00 0.00 0.00 0.00 0.00 0.00 0.00 0.00 0.00 0.00 0.00 0.00 -0.00 0.00 0.00 0.00 0.00 0.00 0.00 0.00 0.00 0.00 0.00 0.00 0.00 0.00 0.00 0.00 0.00 0.00 0.00 0.00 0.00 0.00
0.00 0.01 0.01 0.03 0.03 0.01 0.01 0.00 0.00 0.00 0.00 0.00 0.00 0.00 0.00 0.00 0.00 0.00 0.00 0.00 0.00 0.00 0.00 0.00 0.00 0.00 0.00 0.00 0.00 0.00 0.00 0.00 0.00 0.00 0.00 0.00 0.00 0.00 0.00 0.00 0.00 0.00 0.00 0.00 0.00 0.00 0.00 0.00 0.00 0.00 0.00 0.00
0.00 0.00 0.00 0.00 0.02 0.02 0.01 0.02 0.01 0.00 0.00 0.00 0.00 0.00 -0.00 0.00 0.00 0.00 0.00 0.00 0.00 0.00 0.00 0.00 0.00 0.00 0.00 0.00 0.00 0.00 0.00 0.00 0.00 0.00 0.00 0.00 0.00 0.00 0.00 0.00 0.00 0.00 0.00 0.00 0.00 0.00 0.00 0.00 0.00 0.00 0.00 0.00
0.00 0.00 0.00 0.00 0.00 0.02 0.02 0.02 0.03 0.03 0.00 0.00 0.00 0.00 0.00 0.00 0.00 0.00 0.00 0.00 0.00 0.00 0.00 0.00 0.00 0.00 0.00 0.00 0.00 0.00 0.00 0.00 0.00 0.00 0.00 -0.00 0.00 0.00 0.00 0.00 0.00 0.00 0.00 0.00 0.00 0.00 0.00 0.00 0.00 0.00 0.00 0.00
0.00 0.00 0.00 0.00 0.00 0.00 0.01 0.02 0.01 0.01 0.01 0.01 0.00 0.00 0.00 0.00 0.00 0.00 0.00 0.00 0.00 0.00 0.00 0.00 0.00 0.00 0.00 0.00 0.00 0.00 0.00 0.00 0.00 0.00 0.00 0.00 0.00 0.00 0.00 0.00 0.00 0.00 0.00 0.00 0.00 0.00 0.00 0.00 0.00 0.00 0.00 0.00
0.00 0.00 0.00 0.00 0.00 0.00 -0.00 0.00 0.01 0.03 0.02 0.02 0.01 0.00 0.00 0.00 0.00 0.00 0.00 0.01 0.00 0.00 0.00 0.00 0.00 0.00 0.00 0.00 0.00 0.00 0.00 0.00 0.00 0.00 0.00 0.00 0.00 0.00 0.00 0.00 0.00 0.00 0.00 0.00 0.00 0.00 0.00 0.00 0.00 0.00 0.00 0.00
0.00 0.00 0.00 0.00 0.00 0.00 0.00 0.00 0.00 0.01 0.02 0.03 0.04 0.15 0.03 0.00 0.00 0.00 0.00 0.01 0.01 0.00 0.00 0.00 0.00 0.00 0.00 0.00 0.00 0.00 0.00 0.00 0.00 0.00 0.00 0.00 0.00 0.00 0.00 0.00 0.00 0.00 0.00 0.00 0.00 0.00 0.00 0.00 0.00 0.00 0.00 0.00
0.00 0.00 0.00 0.00 0.00 0.00 0.00 0.00 0.00 0.00 0.01 0.02 0.04 0.06 0.08 0.03 0.00 0.00 0.01 0.02 0.00 0.00 0.00 0.00 0.00 0.00 0.00 0.00 0.00 0.00 0.00 0.00 0.00 0.00 0.00 0.00 0.00 0.00 0.00 0.00 0.00 0.00 0.00 0.00 0.00 0.00 0.00 0.00 0.00 0.00 0.00 0.00
0.00 0.00 0.00 0.00 0.00 0.00 0.00 0.00 0.00 0.00 0.00 0.01 0.04 0.02 0.05 0.06 0.06 0.04 0.01 0.00 0.00 0.01 0.00 0.00 0.00 0.00 0.00 0.00 0.00 0.00 0.00 0.00 0.00 0.00 0.00 0.00 0.00 0.00 0.00 0.00 0.00 0.00 0.00 0.00 0.00 0.00 0.00 0.00 0.00 0.00 0.00 0.00
0.00 0.00 0.00 0.00 0.00 0.00 0.00 0.00 0.00 0.00 -0.00 0.00 0.00 0.02 0.18 0.08 0.16 0.06 0.17 0.05 0.03 0.04 0.00 0.00 0.00 0.00 0.00 0.00 0.00 0.00 0.00 0.00 0.00 0.00 0.00 0.00 0.00 0.00 0.00 0.00 0.00 0.00 0.00 0.00 0.00 0.00 0.00 0.00 0.00 0.00 0.00 0.00
0.00 0.00 0.00 0.00 0.00 0.00 0.00 0.00 0.00 0.00 -0.00 0.00 0.00 0.00 0.00 0.07 0.14 0.16 0.14 0.25 0.07 0.05 0.02 0.02 0.00 0.00 0.00 0.00 0.00 0.00 0.00 0.00 0.00 0.00 0.00 0.00 0.00 0.00 0.00 0.00 0.00 0.00 0.00 0.00 0.00 0.00 0.00 0.00 0.00 0.00 0.00 0.00
0.00 0.00 0.00 0.00 0.00 0.00 0.00 0.00 0.00 0.00 0.00 0.00 -0.00 0.00 0.00 0.00 0.02 0.04 0.16 0.26 0.15 0.15 0.13 0.11 0.05 0.01 0.00 0.00 0.00 0.00 0.00 0.00 0.00 0.00 0.00 0.00 0.00 0.00 0.00 0.00 0.00 0.00 0.00 0.00 0.00 0.00 0.00 0.00 0.00 0.00 0.00 0.00
0.00 0.00 0.00 0.00 0.00 0.00 0.00 0.00 0.00 0.00 0.00 0.00 0.00 0.00 0.00 0.00 0.00 0.00 0.00 0.02 0.17 0.19 0.20 0.17 0.17 0.07 0.02 0.00 0.00 0.00 0.00 0.00 0.00 0.00 0.00 0.00 0.00 0.00 0.00 0.00 0.00 0.00 0.00 0.00 0.00 0.00 0.00 0.00 0.00 0.00 0.00 0.00
0.00 0.00 0.00 0.00 0.00 0.00 0.00 0.00 0.00 0.00 0.00 0.00 0.00 0.00 0.00 0.00 0.00 -0.00 0.00 0.00 0.01 0.05 0.12 0.25 0.18 0.18 0.08 0.03 0.03 0.03 0.00 0.01 0.00 0.00 0.00 0.00 0.00 0.00 0.00 0.00 0.00 0.00 0.00 0.00 0.00 0.00 0.00 0.00 0.00 0.00 0.00 0.00
0.00 0.00 0.00 0.00 0.00 0.00 0.00 0.00 0.00 0.00 0.00 0.00 0.00 0.00 0.00 0.00 0.00 0.00 -0.00 0.00 0.00 0.01 0.03 0.08 0.16 0.16 0.17 0.15 0.04 0.01 0.02 0.00 0.02 0.03 0.00 0.00 0.00 0.00 0.00 0.00 0.00 0.00 0.00 0.00 0.00 0.00 0.00 0.00 0.00 0.00 0.00 0.00
0.00 0.00 0.00 0.00 0.00 0.00 0.00 0.00 0.00 0.00 0.00 0.00 0.00 0.00 0.00 0.00 0.00 0.00 0.00 0.00 0.00 -0.00 0.01 0.01 0.04 0.08 0.14 0.19 0.13 0.10 0.06 0.05 0.00 0.00 0.00 0.00 0.00 0.00 0.00 0.00 0.00 0.00 0.00 0.00 0.00 0.00 0.00 0.00 0.00 0.00 0.00 0.00
0.00 0.00 0.00 0.00 0.00 0.00 0.00 0.00 0.00 0.00 0.00 0.00 0.00 0.00 0.00 0.00 0.00 0.00 0.00 0.00 0.00 0.00 -0.00 0.00 0.00 0.02 0.03 0.07 0.14 0.12 0.06 0.02 0.05 0.00 0.00 0.02 0.00 0.00 0.00 0.00 0.00 0.00 0.00 0.00 0.00 0.00 0.00 0.00 0.00 0.00 0.00 0.00
0.00 0.00 0.00 0.00 0.00 0.00 0.00 0.00 0.00 0.00 0.00 0.00 0.00 0.00 0.00 0.00 0.00 0.00 0.00 0.00 0.00 0.00 0.00 0.00 0.00 0.00 0.02 0.04 0.07 0.10 0.09 0.05 0.01 0.01 0.00 0.00 0.00 0.00 0.00 0.00 0.00 0.00 0.00 0.00 0.00 0.00 0.00 0.00 0.00 0.00 0.00 0.00
0.00 0.00 0.00 0.00 -0.00 0.00 0.00 0.00 0.00 0.00 0.00 0.00 0.00 0.00 0.00 0.00 0.00 0.00 0.00 0.00 0.00 0.00 0.00 0.00 0.00 0.00 0.00 0.02 0.06 0.09 0.10 0.09 0.05 0.01 0.00 0.00 0.00 0.00 0.00 0.00 0.00 0.00 0.00 0.00 0.00 0.00 0.00 0.00 0.00 0.00 0.00 0.00
0.00 0.00 0.00 -0.00 -0.00 -0.00 -0.00 0.00 0.00 0.00 0.00 -0.00 0.00 0.00 0.00 0.00 0.00 0.00 0.00 0.00 0.00 0.00 0.00 0.00 0.00 0.00 0.00 0.01 0.04 0.07 0.09 0.09 0.08 0.04 0.01 0.00 0.00 0.00 0.00 0.00 0.00 0.00 0.00 0.00 0.00 0.00 0.00 0.00 0.00 0.00 0.00 0.00
0.00 0.00 -0.00 -0.00 0.00 0.00 0.00 -0.00 -0.00 0.00 0.00 0.00 0.00 0.00 -0.00 0.00 0.00 0.00 0.00 0.00 0.00 0.00 0.00 0.00 0.00 0.00 0.00 0.00 0.02 0.07 0.10 0.09 0.08 0.07 0.03 0.01 0.00 0.00 0.00 0.00 0.00 0.00 0.00 0.00 0.00 0.00 0.00 0.00 0.00 0.00 0.00 0.00
0.00 0.00 0.00 0.00 -0.00 0.00 0.00 -0.00 0.00 0.00 0.00 0.00 0.00 0.00 -0.00 0.00 0.00 0.00 0.00 0.00 0.00 0.00 0.00 0.00 0.00 0.00 0.01 0.01 0.01 0.03 0.07 0.09 0.10 0.10 0.08 0.05 0.03 0.00 0.00 0.00 0.00 0.00 0.00 0.00 0.00 0.00 0.00 0.00 0.00 0.00 0.00 0.00
0.00 0.00 0.00 -0.00 0.00 0.00 0.00 0.00 0.00 0.00 0.00 0.00 0.00 0.00 0.00 0.00 0.00 0.00 0.00 0.00 0.00 0.00 -0.00 0.00 0.00 0.00 0.00 0.01 0.01 0.02 0.04 0.07 0.10 0.10 0.09 0.07 0.04 0.03 0.01 0.00 0.00 0.00 0.00 0.00 0.00 0.00 0.00 0.00 0.00 0.00 0.00 0.00
0.00 0.00 0.00 -0.00 0.00 -0.00 -0.00 0.00 0.00 -0.00 0.00 -0.00 0.00 0.00 0.00 0.00 0.00 -0.00 -0.00 0.00 -0.00 0.00 -0.00 0.00 0.00 0.00 0.00 0.01 0.01 0.02 0.04 0.05 0.08 0.10 0.10 0.09 0.05 0.03 0.02 0.01 0.00 0.00 0.00 0.00 0.00 0.00 0.00 0.00 0.00 0.00 0.00 0.00
0.00 0.00 0.00 -0.00 0.00 0.00 0.00 0.00 0.00 0.00 0.00 0.00 -0.00 0.00 0.00 -0.00 0.00 0.00 0.00 0.00 0.00 0.00 0.00 0.00 0.00 0.00 0.00 0.00 0.01 0.02 0.04 0.05 0.04 0.06 0.08 0.08 0.07 0.05 0.02 0.02 0.00 0.00 0.00 0.00 0.00 0.00 0.00 0.00 0.00 0.00 0.00 0.00
0.00 0.00 0.00 0.00 0.00 0.00 -0.00 0.00 0.00 0.00 0.00 0.00 0.00 -0.00 -0.00 0.00 -0.00 0.00 0.00 0.00 0.00 0.00 0.00 0.00 0.00 0.01 0.00 0.01 0.01 0.01 0.02 0.03 0.04 0.05 0.05 0.06 0.07 0.07 0.04 0.02 0.02 0.00 0.00 0.00 0.00 0.00 0.00 0.00 0.00 0.00 0.00 0.00
0.00 0.00 0.00 0.00 0.00 0.00 0.00 0.00 -0.00 0.00 0.00 0.00 -0.00 0.00 -0.00 -0.00 0.00 0.00 0.00 -0.00 0.00 0.00 0.00 0.00 -0.00 0.00 0.00 0.01 0.00 0.00 0.01 0.02 0.03 0.03 0.04 0.06 0.06 0.06 0.04 0.02 0.01 0.01 0.00 0.00 0.00 0.00 0.00 0.00 0.00 0.00 0.00 0.00
MSLP
1015.62 1015.62 1015.66 1015.74 1015.86 1015.98 1015.98 1016.02 1016.10 1016.10 1016.10 1016.06 1015.98 1016.02 1016.14 1016.34 1016.54 1016.74 1016.90 1017.10 1017.26 1017.38 1017.54 1017.74 1017.98 1018.14 1018.30 1018.46 1018.54 1018.42 1018.38 1018.42 1018.58 1018.78 1018.94 1019.18 1019.46 1019.62 1019.86 1020.14 1020.50 1020.66 1021.14 1021.54 1021.90 1022.46 1022.90 1023.14 1023.50 1023.74 1023.86 1024.06
1015.82 1015.78 1015.78 1015.86 1015.94 1016.10 1016.14 1016.14 1016.14 1016.14 1016.18 1016.18 1016.10 1016.06 1016.14 1016.26 1016.42 1016.58 1016.74 1016.94 1017.10 1017.30 1017.50 1017.74 1017.90 1018.02 1018.18 1018.34 1018.46 1018.38 1018.30 1018.30 1018.50 1018.70 1018.90 1019.10 1019.26 1019.54 1019.74 1019.94 1020.34 1020.50 1021.10 1021.54 1021.94 1022.34 1022.70 1023.02 1023.30 1023.54 1023.86 1024.10
1015.82 1015.82 1015.90 1015.94 1016.06 1016.14 1016.14 1016.18 1016.22 1016.22 1016.22 1016.26 1016.22 1016.18 1016.22 1016.30 1016.34 1016.46 1016.58 1016.78 1017.02 1017.14 1017.42 1017.66 1017.86 1017.98 1018.10 1018.22 1018.38 1018.46 1018.34 1018.34 1018.38 1018.62 1018.82 1019.02 1019.14 1019.46 1019.58 1019.74 1019.94 1020.38 1021.06 1021.50 1021.86 1022.26 1022.66 1022.98 1023.22 1023.30 1023.78 1024.10
1015.86 1015.82 1015.78 1015.86 1015.94 1016.02 1016.10 1016.18 1016.26 1016.26 1016.26 1016.30 1016.34 1016.26 1016.34 1016.34 1016.34 1016.42 1016.54 1016.66 1016.82 1016.98 1017.22 1017.46 1017.74 1017.94 1018.10 1018.18 1018.10 1018.14 1018.38 1018.34 1018.38 1018.62 1018.78 1018.94 1019.06 1019.34 1019.46 1019.66 1019.86 1020.50 1020.86 1021.30 1021.74 1022.18 1022.54 1022.86 1023.10 1023.38 1023.66 1024.06
1016.62 1016.38 1016.18 1016.10 1016.02 1015.90 1015.94 1016.06 1016.10 1016.22 1016.26 1016.26 1016.34 1016.34 1016.38 1016.46 1016.46 1016.46 1016.46 1016.58 1016.78 1016.90 1017.18 1017.38 1017.54 1017.74 1018.06 1018.18 1018.02 1018.26 1018.34 1018.30 1018.38 1018.58 1018.70 1018.86 1018.98 1019.26 1019.50 1019.74 1020.10 1020.50 1020.86 1021.22 1021.66 1022.06 1022.42 1022.74 1023.14 1023.38 1023.50 1023.90
1017.06 1016.86 1016.54 1016.38 1016.30 1016.26 1016.26 1016.02 1015.90 1016.02 1016.14 1016.30 1016.34 1016.38 1016.42 1016.50 1016.58 1016.50 1016.50 1016.50 1016.62 1016.78 1017.02 1017.30 1017.46 1017.62 1017.86 1018.10 1018.10 1018.22 1018.34 1018.30 1018.30 1018.42 1018.58 1018.74 1018.94 1019.22 1019.46 1019.90 1020.26 1020.62 1020.90 1021.30 1021.66 1022.06 1022.38 1022.86 1023.14 1023.30 1023.50 1023.78
1017.38 1017.18 1017.02 1016.78 1016.62 1016.66 1016.38 1016.46 1016.50 1016.26 1016.10 1016.18 1016.26 1016.30 1016.38 1016.46 1016.54 1016.62 1016.46 1016.54 1016.62 1016.70 1016.86 1017.06 1017.34 1017.50 1017.70 1017.90 1017.94 1018.10 1018.14 1018.22 1018.26 1018.30 1018.42 1018.62 1018.82 1019.14 1019.42 1019.94 1020.34 1020.66 1021.02 1021.38 1021.66 1022.02 1022.50 1022.90 1023.14 1023.30 1023.50 1023.70
1017.70 1017.54 1017.38 1017.26 1017.10 1016.82 1016.66 1016.54 1016.54 1016.74 1016.46 1016.14 1016.18 1016.18 1016.30 1016.38 1016.46 1016.50 1016.58 1016.50 1016.46 1016.62 1016.74 1016.94 1017.10 1017.34 1017.54 1017.74 1017.86 1017.94 1018.06 1018.10 1018.14 1018.18 1018.26 1018.46 1018.74 1019.02 1019.70 1020.06 1020.34 1020.66 1021.06 1021.38 1021.70 1022.10 1022.42 1022.66 1022.94 1023.18 1023.46 1023.70
1018.18 1017.94 1017.62 1017.50 1017.38 1017.34 1017.14 1016.86 1016.70 1016.58 1016.50 1016.42 1016.14 1016.10 1016.14 1016.26 1016.30 1016.42 1016.46 1016.58 1016.62 1016.54 1016.66 1016.82 1016.98 1017.22 1017.42 1017.66 1017.78 1017.94 1018.10 1018.14 1018.14 1018.18 1018.26 1018.38 1018.58 1019.14 1019.62 1019.98 1020.30 1020.54 1020.98 1021.46 1021.74 1022.02 1022.22 1022.38 1022.66 1022.90 1023.26 1023.62
1018.86 1018.38 1018.14 1017.98 1017.78 1017.54 1017.42 1017.38 1017.14 1016.74 1016.54 1016.46 1016.46 1016.14 1015.94 1016.02 1016.14 1016.26 1016.38 1016.50 1016.62 1016.62 1016.54 1016.70 1016.94 1017.06 1017.22 1017.46 1017.70 1017.86 1018.06 1018.26 1018.18 1018.22 1018.30 1018.34 1018.54 1019.06 1019.38 1019.70 1020.10 1020.34 1020.62 1021.22 1021.62 1021.82 1021.98 1022.18 1022.38 1022.54 1022.98 1023.38
1019.26 1019.02 1018.82 1018.46 1018.10 1017.94 1017.66 1017.50 1017.42 1017.22 1016.90 1016.62 1016.50 1016.50 1016.38 1016.10 1015.94 1016.06 1016.18 1016.26 1016.42 1016.54 1016.58 1016.50 1016.66 1016.94 1017.06 1017.22 1017.46 1017.66 1017.98 1018.22 1018.34 1018.18 1018.34 1018.46 1018.58 1019.06 1019.34 1019.66 1019.90 1020.10 1020.42 1020.66 1021.06 1021.46 1021.66 1021.90 1022.14 1022.30 1022.62 1023.06
1019.70 1019.46 1019.14 1018.90 1018.54 1018.22 1017.98 1017.74 1017.58 1017.42 1017.22 1016.90 1016.66 1016.38 1016.26 1016.58 1016.42 1016.02 1015.98 1016.10 1016.22 1016.30 1016.42 1016.38 1016.46 1016.62 1016.90 1017.02 1017.22 1017.42 1017.78 1018.06 1018.38 1018.42 1018.34 1018.50 1018.70 1019.10 1019.42 1019.70 1019.90 1020.02 1020.22 1020.42 1020.66 1021.02 1021.42 1021.70 1021.90 1022.14 1022.34 1022.82
1020.06 1019.78 1019.54 1019.26 1018.98 1018.70 1018.34 1018.02 1017.78 1017.54 1017.30 1017.06 1016.78 1016.54 1016.38 1016.38 1016.46 1016.50 1016.22 1015.98 1015.86 1016.02 1016.02 1015.98 1016.10 1016.34 1016.54 1016.70 1016.86 1017.10 1017.50 1017.78 1018.10 1018.50 1018.38 1018.50 1018.66 1018.98 1019.34 1019.62 1019.86 1020.02 1020.22 1020.34 1020.54 1020.70 1021.10 1021.38 1021.66 1021.94 1022.18 1022.58
1020.26 1020.02 1019.82 1019.58 1019.34 1019.06 1018.66 1018.34 1017.98 1017.58 1017.30 1017.10 1016.90 1016.70 1016.50 1016.26 1016.30 1016.38 1016.30 1016.14 1016.18 1016.46 1016.10 1015.82 1015.82 1015.90 1015.98 1016.30 1016.46 1016.74 1016.98 1017.38 1017.74 1018.18 1018.46 1018.46 1018.70 1018.90 1019.18 1019.42 1019.62 1019.90 1020.14 1020.38 1020.50 1020.62 1020.82 1021.18 1021.38 1021.62 1022.02 1022.42
1020.34 1020.18 1019.94 1019.78 1019.54 1019.26 1018.98 1018.62 1018.22 1017.86 1017.50 1017.06 1016.78 1016.70 1016.54 1016.38 1016.22 1016.10 1016.06 1016.06 1016.06 1016.10 1016.14 1016.18 1015.94 1015.62 1015.62 1015.86 1016.02 1016.18 1016.46 1016.94 1017.22 1017.78 1018.18 1018.22 1018.46 1018.66 1018.98 1019.26 1019.54 1019.74 1019.98 1020.22 1020.46 1020.46 1020.58 1020.90 1021.26 1021.50 1021.94 1022.26
1020.38 1020.18 1020.06 1019.82 1019.66 1019.42 1019.10 1018.82 1018.54 1018.18 1017.78 1017.34 1016.90 1016.54 1016.38 1016.38 1016.26 1016.10 1015.94 1015.74 1015.62 1015.58 1015.58 1015.78 1016.02 1016.02 1015.62 1015.34 1015.62 1015.70 1016.02 1016.46 1016.82 1017.22 1017.74 1018.10 1018.22 1018.46 1018.74 1019.22 1019.62 1019.78 1019.90 1020.14 1020.26 1020.38 1020.46 1020.74 1020.94 1021.30 1021.70 1022.02
1020.38 1020.22 1020.06 1019.86 1019.66 1019.46 1019.22 1018.94 1018.66 1018.42 1018.06 1017.66 1017.18 1016.70 1016.30 1016.10 1016.06 1016.02 1015.86 1015.70 1015.58 1015.46 1015.42 1015.46 1015.46 1015.54 1015.94 1015.78 1015.34 1015.34 1015.62 1015.94 1016.42 1016.86 1017.42 1018.02 1018.34 1018.50 1018.74 1019.14 1019.50 1019.78 1019.90 1020.02 1020.22 1020.38 1020.46 1020.70 1020.86 1021.06 1021.50 1021.78
1020.22 1020.10 1019.98 1019.82 1019.62 1019.46 1019.26 1019.02 1018.78 1018.50 1018.22 1017.86 1017.46 1016.98 1016.50 1016.14 1015.86 1015.78 1015.74 1015.66 1015.42 1015.30 1015.18 1015.18 1015.26 1015.18 1015.30 1015.66 1015.86 1015.50 1015.46 1015.86 1016.18 1016.46 1016.94 1017.50 1018.18 1018.46 1018.62 1018.78 1019.14 1019.54 1019.78 1019.98 1020.14 1020.34 1020.50 1020.70 1020.78 1021.06 1021.30 1021.50
1019.98 1019.86 1019.82 1019.70 1019.54 1019.42 1019.26 1019.02 1018.78 1018.50 1018.26 1017.98 1017.66 1017.30 1016.82 1016.38 1016.02 1015.70 1015.54 1015.50 1015.42 1015.26 1015.14 1014.98 1014.90 1014.98 1014.98 1015.06 1015.50 1015.82 1015.54 1015.30 1015.74 1016.02 1016.34 1016.86 1017.66 1018.26 1018.58 1018.58 1018.86 1019.10 1019.26 1019.62 1019.98 1020.18 1020.42 1020.58 1020.78 1021.06 1021.14 1021.38
1019.70 1019.58 1019.58 1019.62 1019.50 1019.34 1019.26 1019.06 1018.78 1018.50 1018.26 1018.02 1017.74 1017.42 1017.06 1016.66 1016.26 1015.90 1015.62 1015.50 1015.30 1015.22 1015.06 1014.94 1014.82 1014.62 1014.66 1014.82 1015.02 1015.38 1015.66 1015.54 1015.46 1015.58 1016.02 1016.38 1016.66 1017.82 1018.38 1018.70 1018.90 1018.98 1019.06 1019.34 1019.54 1019.98 1020.26 1020.50 1020.66 1020.86 1021.10 1021.26
1019.50 1019.38 1019.42 1019.50 1019.50 1019.42 1019.30 1019.18 1018.94 1018.66 1018.38 1018.06 1017.78 1017.42 1017.10 1016.82 1016.54 1016.26 1015.98 1015.74 1015.50 1015.30 1015.10 1014.90 1014.78 1014.66 1014.46 1014.62 1014.90 1015.18 1015.38 1015.66 1015.38 1015.30 1015.54 1016.18 1016.18 1016.38 1017.46 1018.30 1018.54 1018.94 1018.82 1019.10 1019.22 1019.62 1019.94 1020.26 1020.50 1020.70 1020.78 1020.94
1019.34 1019.22 1019.30 1019.38 1019.38 1019.26 1019.26 1019.18 1018.98 1018.74 1018.50 1018.26 1017.94 1017.50 1017.10 1016.82 1016.62 1016.38 1016.10 1015.86 1015.70 1015.50 1015.30 1015.10 1014.86 1014.66 1014.54 1014.46 1014.70 1014.90 1015.18 1015.26 1015.18 1015.14 1015.02 1015.58 1015.90 1015.94 1016.54 1017.54 1018.10 1018.54 1018.78 1018.98 1019.18 1019.46 1019.62 1019.90 1020.18 1020.30 1020.58 1020.74
1019.14 1019.10 1019.22 1019.26 1019.18 1019.10 1019.02 1018.90 1018.82 1018.66 1018.46 1018.22 1017.90 1017.62 1017.14 1016.90 1016.66 1016.38 1016.10 1015.86 1015.74 1015.62 1015.38 1015.22 1014.98 1014.82 1014.62 1014.58 1014.50 1014.58 1014.90 1015.18 1015.22 1015.06 1014.82 1014.82 1015.54 1015.78 1015.74 1016.18 1016.98 1017.54 1018.14 1018.58 1018.90 1019.10 1019.30 1019.58 1019.74 1020.02 1020.42 1020.66
1019.06 1019.02 1019.18 1019.18 1019.10 1019.06 1018.82 1018.58 1018.42 1018.26 1018.18 1017.98 1017.78 1017.46 1017.26 1017.02 1016.78 1016.50 1016.22 1015.90 1015.62 1015.58 1015.46 1015.30 1015.14 1014.98 1014.86 1014.78 1014.74 1014.62 1014.62 1014.86 1015.14 1015.18 1014.94 1014.70 1014.90 1015.54 1015.90 1016.02 1016.38 1017.10 1017.98 1018.54 1018.98 1019.26 1019.58 1019.74 1019.82 1019.98 1020.18 1020.42
1019.06 1019.02 1019.02 1019.02 1018.94 1018.70 1018.50 1018.34 1018.06 1017.90 1017.78 1017.62 1017.42 1017.22 1017.02 1016.82 1016.62 1016.38 1016.18 1015.90 1015.70 1015.46 1015.34 1015.26 1015.10 1015.02 1015.10 1015.30 1015.10 1014.86 1014.54 1014.34 1014.54 1014.94 1015.06 1014.66 1014.54 1014.94 1015.50 1015.90 1016.26 1016.86 1017.50 1018.42 1019.14 1019.38 1019.50 1019.82 1020.02 1020.02 1020.06 1020.06
1019.30 1019.18 1018.94 1018.66 1018.42 1018.30 1018.26 1018.14 1018.02 1017.78 1017.58 1017.30 1017.06 1016.94 1016.78 1016.62 1016.46 1016.30 1016.14 1015.90 1015.66 1015.42 1015.26 1015.18 1015.06 1014.98 1014.90 1015.06 1015.34 1015.22 1014.94 1014.62 1014.38 1014.50 1015.02 1015.34 1015.18 1014.74 1014.58 1014.90 1015.54 1016.38 1017.18 1018.38 1017.94 1018.78 1019.58 1019.74 1019.90 1020.06 1020.10 1019.98
1019.26 1018.90 1018.58 1018.46 1018.22 1018.06 1017.98 1017.82 1017.66 1017.46 1017.26 1017.06 1016.90 1016.74 1016.62 1016.42 1016.26 1016.14 1016.02 1015.86 1015.70 1015.54 1015.30 1015.14 1015.02 1014.90 1014.78 1014.82 1014.94 1015.10 1015.14 1014.98 1014.62 1014.30 1014.42 1014.94 1015.34 1015.34 1015.06 1014.70 1015.22 1015.66 1015.22 1016.18 1017.14 1018.14 1019.14 1019.54 1019.74 1019.78 1019.98 1019.90
1019.02 1018.78 1018.58 1018.42 1018.26 1018.06 1017.90 1017.58 1017.34 1017.22 1017.06 1016.98 1016.82 1016.62 1016.38 1016.22 1015.98 1015.86 1015.78 1015.70 1015.62 1015.54 1015.42 1015.26 1015.02 1014.82 1014.78 1014.74 1014.74 1014.78 1014.90 1014.94 1014.82 1014.62 1014.26 1014.50 1014.90 1015.30 1015.42 1015.18 1015.38 1015.42 1014.98 1014.98 1016.58 1018.34 1017.38 1018.22 1018.74 1019.34 1019.18 1018.50
1019.10 1018.86 1018.70 1018.46 1018.14 1017.82 1017.46 1017.26 1017.14 1017.06 1016.94 1016.78 1016.62 1016.42 1016.26 1015.98 1015.66 1015.50 1015.50 1015.46 1015.38 1015.34 1015.26 1015.18 1015.06 1014.86 1014.70 1014.62 1014.70 1014.66 1014.62 1014.66 1014.74 1014.66 1014.42 1014.14 1014.46 1014.78 1015.06 1015.30 1014.98 1015.34 1015.22 1015.02 1014.54 1014.86 1017.10 1018.74 1018.66 1016.70 1015.90 1018.14
1019.10 1019.02 1018.82 1018.62 1018.46 1018.06 1017.62 1017.38 1017.26 1017.10 1016.78 1016.50 1016.38 1016.14 1015.74 1015.54 1015.38 1015.18 1015.10 1015.10 1015.10 1015.02 1015.02 1014.94 1014.90 1014.82 1014.74 1014.58 1014.42 1014.50 1014.46 1014.38 1014.42 1014.58 1014.50 1014.30 1014.14 1014.30 1014.46 1014.74 1014.94 1015.10 1015.30 1014.90 1014.78 1014.22 1013.62 1013.62 1014.38 1015.70 1017.14 1017.54
1019.46 1019.30 1019.10 1018.94 1018.66 1018.34 1017.78 1017.38 1017.02 1016.70 1016.46 1016.30 1016.02 1015.78 1015.54 1015.26 1015.02 1014.86 1014.78 1014.66 1014.62 1014.66 1014.70 1014.70 1014.70 1014.66 1014.66 1014.58 1014.46 1014.26 1014.26 1014.26 1014.22 1014.22 1014.42 1014.46 1014.38 1014.26 1014.26 1014.38 1014.58 1014.62 1014.70 1015.06 1014.86 1014.62 1014.30 1014.14 1014.38 1014.42 1016.18 1016.06
Thickness
5592 5591 5591 5590 5588 5587 5587 5586 5585 5585 5585 5585 5585 5585 5584 5585 5584 5584 5583 5583 5583 5583 5582 5581 5580 5580 5579 5579 5580 5582 5584 5584 5584 5584 5584 5583 5582 5581 5582 5581 5580 5580 5577 5574 5574 5572 5571 5571 5570 5570 5571 5572
5585 5585 5585 5583 5581 5580 5580 5580 5579 5579 5579 5579 5579 5579 5578 5578 5579 5578 5578 5578 5578 5578 5577 5575 5575 5575 5575 5575 5575 5576 5579 5580 5579 5579 5579 5579 5578 5578 5579 5579 5578 5577 5572 5570 5571 5570 5568 5567 5567 5567 5566 5567
5579 5579 5578 5577 5576 5575 5574 5574 5573 5573 5572 5572 5573 5573 5572 5572 5573 5573 5572 5572 5572 5572 5572 5570 5570 5570 5570 5570 5570 5571 5573 5574 5574 5574 5574 5574 5575 5574 5574 5575 5576 5573 5569 5566 5567 5567 5565 5564 5564 5564 5563 5563
5572 5572 5572 5572 5570 5570 5569 5569 5568 5567 5567 5566 5566 5567 5567 5566 5567 5567 5566 5566 5566 5566 5565 5565 5565 5565 5565 5565 5567 5567 5567 5569 5569 5569 5569 5570 5570 5570 5570 5571 5570 5568 5565 5563 5563 5563 5562 5561 5560 5561 5560 5560
5561 5563 5564 5564 5564 5564 5564 5563 5563 5562 5561 5561 5560 5561 5561 5561 5561 5562 5561 5561 5560 5560 5559 5560 5560 5560 5559 5559 5561 5562 5561 5563 5564 5564 5564 5565 5565 5564 5565 5566 5564 5562 5560 5559 5558 5558 5558 5557 5557 5557 5557 5556
5551 5553 5554 5555 5555 5555 5556 5557 5557 5557 5556 5555 5555 5555 5555 5555 5556 5556 5556 5556 5555 5555 5554 5554 5554 5554 5553 5554 5556 5555 5556 5558 5558 5559 5559 5559 5560 5559 5561 5561 5557 5556 5555 5553 5552 5551 5553 5553 5552 5552 5552 5552
5543 5544 5545 5546 5547 5546 5548 5549 5548 5549 5550 5550 5550 5549 5549 5550 5549 5550 5551 5551 5550 5550 5549 5549 5548 5547 5547 5547 5549 5550 5551 5552 5553 5554 5554 5555 5555 5553 5556 5556 5550 5550 5550 5548 5546 5546 5547 5549 5547 5547 5547 5547
5534 5535 5536 5537 5537 5537 5539 5541 5540 5540 5542 5543 5544 5543 5543 5543 5543 5544 5545 5545 5546 5545 5545 5544 5544 5542 5541 5541 5542 5543 5545 5546 5547 5549 5549 5550 5549 5549 5551 5549 5545 5544 5546 5544 5541 5541 5544 5544 5543 5542 5543 5541
5524 5526 5527 5528 5528 5528 5530 5531 5531 5532 5534 5535 5537 5537 5538 5537 5538 5538 5539 5539 5539 5540 5539 5539 5539 5538 5536 5535 5536 5536 5538 5539 5540 5542 5544 5545 5545 5546 5546 5543 5541 5540 5540 5540 5536 5535 5540 5540 5539 5539 5538 5537
5513 5515 5516 5518 5519 5520 5520 5521 5522 5524 5526 5527 5528 5529 5531 5531 5532 5531 5532 5533 5532 5533 5534 5534 5534 5532 5531 5530 5530 5530 5531 5531 5533 5536 5538 5540 5540 5541 5541 5538 5537 5536 5536 5536 5532 5531 5535 5536 5534 5535 5534 5533
5501 5503 5505 5506 5508 5510 5511 5512 5512 5514 5517 5519 5520 5521 5521 5522 5524 5525 5525 5526 5526 5527 5527 5528 5528 5526 5526 5526 5525 5524 5525 5524 5525 5529 5530 5532 5533 5535 5534 5533 5532 5532 5532 5532 5529 5527 5529 5531 5529 5530 5530 5528
5491 5492 5494 5495 5497 5499 5501 5503 5504 5505 5508 5510 5512 5514 5514 5512 5513 5516 5518 5519 5519 5520 5521 5522 5523 5521 5520 5521 5520 5519 5519 5518 5518 5520 5523 5523 5525 5526 5526 5525 5526 5527 5528 5528 5526 5524 5525 5526 5525 5525 5525 5523
5480 5481 5482 5484 5486 5488 5490 5492 5494 5496 5498 5501 5503 5505 5506 5505 5504 5506 5508 5511 5512 5513 5515 5518 5518 5517 5516 5515 5515 5514 5514 5514 5512 5512 5514 5516 5517 5519 5518 5518 5518 5520 5521 5522 5522 5522 5521 5521 5520 5520 5520 5518
5470 5471 5472 5473 5474 5476 5478 5481 5484 5486 5489 5492 5494 5495 5497 5498 5498 5498 5499 5501 5502 5502 5505 5509 5512 5514 5513 5511 5510 5509 5510 5510 5507 5505 5506 5508 5510 5510 5510 5511 5511 5512 5514 5515 5516 5517 5517 5516 5515 5515 5515 5513
5460 5460 5461 5462 5463 5465 5467 5469 5472 5476 5479 5482 5485 5487 5487 5489 5491 5492 5493 5494 5494 5494 5496 5498 5502 5507 5509 5509 5507 5505 5505 5505 5503 5501 5500 5502 5503 5504 5504 5503 5503 5504 5506 5507 5508 5510 5511 5511 5510 5510 5508 5507
5449 5449 5450 5451 5452 5454 5456 5458 5461 5463 5467 5471 5475 5478 5479 5480 5481 5483 5486 5487 5488 5489 5490 5490 5492 5496 5500 5504 5504 5502 5500 5499 5498 5497 5494 5495 5496 5498 5497 5496 5496 5496 5497 5498 5499 5501 5503 5504 5504 5504 5503 5502
5439 5439 5439 5440 5441 5442 5445 5447 5449 5452 5455 5459 5463 5467 5471 5472 5473 5474 5476 5479 5481 5482 5483 5483 5484 5487 5490 5493 5497 5498 5496 5493 5492 5492 5489 5487 5488 5489 5490 5490 5489 5488 5489 5490 5491 5493 5494 5495 5496 5496 5496 5496
5430 5429 5430 5430 5431 5431 5433 5435 5437 5441 5443 5447 5451 5455 5459 5462 5464 5466 5467 5469 5473 5475 5477 5477 5478 5480 5481 5483 5486 5488 5490 5489 5486 5486 5485 5482 5480 5481 5483 5484 5483 5483 5483 5483 5483 5484 5485 5486 5487 5488 5488 5489
5421 5421 5420 5420 5421 5421 5422 5424 5426 5428 5431 5434 5438 5442 5446 5450 5453 5456 5458 5460 5462 5466 5468 5470 5472 5474 5475 5476 5475 5476 5481 5483 5481 5481 5481 5479 5477 5474 5475 5477 5477 5477 5478 5476 5476 5477 5476 5478 5478 5479 5481 5482
5411 5411 5410 5409 5409 5410 5410 5412 5414 5416 5419 5422 5426 5429 5433 5437 5441 5445 5447 5450 5452 5455 5458 5460 5464 5467 5468 5469 5467 5466 5469 5473 5475 5475 5474 5475 5474 5471 5468 5469 5469 5471 5472 5471 5470 5470 5469 5470 5471 5472 5473 5474
5400 5399 5398 5397 5397 5398 5399 5400 5402 5404 5406 5409 5413 5417 5420 5424 5428 5432 5435 5437 5439 5442 5446 5449 5453 5458 5461 5460 5459 5457 5456 5460 5467 5469 5467 5467 5469 5470 5465 5463 5463 5463 5464 5465 5464 5462 5463 5463 5464 5466 5467 5468
5386 5385 5384 5384 5384 5385 5386 5387 5390 5392 5395 5397 5400 5404 5408 5412 5415 5419 5422 5424 5426 5429 5433 5437 5442 5447 5451 5452 5451 5450 5447 5449 5455 5460 5462 5461 5462 5465 5463 5460 5459 5458 5458 5458 5456 5456 5457 5458 5457 5459 5459 5461
5371 5371 5369 5369 5370 5371 5373 5376 5378 5381 5383 5385 5388 5391 5395 5399 5404 5407 5409 5411 5414 5418 5421 5425 5430 5434 5438 5441 5442 5443 5441 5440 5442 5447 5455 5458 5456 5456 5457 5458 5456 5455 5452 5450 5449 5450 5450 5450 5451 5452 5452 5453
5356 5354 5353 5352 5353 5355 5358 5363 5366 5369 5371 5374 5376 5380 5382 5385 5390 5394 5397 5400 5401 5405 5410 5413 5417 5422 5425 5427 5430 5433 5435 5435 5434 5435 5442 5450 5451 5448 5448 5450 5450 5448 5445 5441 5440 5440 5440 5441 5443 5444 5446 5447
5338 5336 5335 5336 5337 5339 5343 5347 5351 5355 5358 5361 5364 5368 5371 5373 5376 5380 5384 5387 5390 5392 5397 5402 5406 5410 5413 5413 5415 5420 5425 5428 5429 5427 5428 5435 5441 5443 5441 5441 5442 5441 5436 5430 5429 5430 5431 5433 5433 5435 5437 5441
5318 5317 5318 5319 5321 5324 5326 5332 5335 5338 5342 5346 5352 5355 5358 5361 5364 5367 5370 5374 5378 5380 5384 5389 5394 5399 5402 5402 5403 5406 5412 5416 5421 5422 5419 5418 5423 5432 5437 5437 5437 5435 5429 5425 5427 5428 5422 5421 5424 5426 5429 5434
5298 5298 5300 5301 5303 5305 5309 5315 5318 5320 5325 5329 5334 5341 5345 5348 5351 5354 5358 5360 5363 5368 5372 5377 5381 5386 5390 5392 5392 5394 5398 5403 5408 5413 5414 5410 5409 5415 5424 5428 5427 5427 5431 5429 5424 5417 5413 5417 5420 5417 5421 5430
5277 5278 5279 5281 5284 5286 5290 5296 5301 5303 5306 5310 5314 5321 5329 5334 5338 5341 5344 5348 5349 5354 5359 5364 5369 5374 5378 5380 5382 5384 5387 5391 5395 5400 5406 5405 5401 5401 5406 5414 5416 5419 5426 5427 5419 5413 5412 5413 5410 5415 5428 5434
5259 5259 5259 5261 5263 5267 5273 5278 5283 5285 5287 5292 5295 5302 5310 5317 5324 5327 5330 5334 5336 5339 5345 5350 5355 5360 5364 5368 5370 5373 5377 5381 5384 5388 5394 5397 5396 5394 5394 5401 5407 5409 5412 5416 5420 5421 5416 5410 5409 5425 5437 5429
5243 5242 5241 5243 5244 5248 5256 5261 5265 5268 5270 5274 5279 5284 5292 5299 5307 5313 5316 5319 5322 5326 5331 5336 5340 5344 5350 5355 5359 5362 5366 5371 5375 5377 5382 5387 5389 5388 5388 5391 5394 5397 5401 5405 5411 5417 5420 5422 5425 5429 5425 5417
5228 5226 5227 5228 5229 5233 5240 5245 5251 5255 5256 5260 5264 5269 5276 5282 5289 5297 5302 5305 5308 5313 5317 5321 5326 5330 5335 5341 5345 5349 5353 5359 5365 5368 5371 5374 5377 5380 5381 5382 5382 5388 5394 5395 5398 5405 5414 5421 5422 5422 5418 5420